Location: Amarillo Post Office Jordan Station
(35.1907°N, 101.9342°W)
Time: 17:24:08
(UTC+00:00)

Cosmos 2098 Rocket - Pass Details

Date: 24 January 2021
Orbit: 366 x 1182 km, 82.9° (Epoch: 02 March)

Event Time Altitude Azimuth Distance (km) Brightness Sun altitude
Rises 13:14:11 0° 350° (N) 3,564 6.7 -8.1°
Reaches altitude 10° 13:16:57 10° 348° (NNW) 2,485 5.9 -7.5°
Maximum altitude 13:22:26 63° 268° (W) 795 3.4 -6.5°
Drops below altitude 10° 13:26:42 10° 187° (S) 1,946 5.8 -5.6°
Sets 13:28:39 0° 184° (S) 2,732 6.6 -5.3°
